Date String (YYYY-MM-DD hh:mm:ss) UTC,Instrument flags,absolute air pressure of the measurement (hPa),sample flow rate (lpm),inlet stack bypass flow (lpm),air temperature of the measurement (°C),ambient temperature measured by the external sensor (°C),aerosol sample conditioner tube jacket temperature (°C),OPC LED temperature (°C),internal box temperature (°C),relative humidity of the measurement (%),span deviation,mass concentration of particles derived from Lorenz-Mie calculation of OPC scattering (μg/m³),mass concentration of particles derived from Lorenz-Mie calculation of OPC scattering (μg/m³),mass concentration of particles derived from Lorenz-Mie calculation of OPC scattering (μg/m³)
DateTimeUTC,F1_M11,P_M11,Q1_M11,Q2_M11,T1_M11,T2_M11,T3_M11,T4_M11,T5_M11,U1_M11,ZSPAN_M11,X0_M11,X2_M11,X1_M11
2023-09-18 05:00:00,SystemResetWarning,0831.7,5.00,000.00,028.0,025.7,000.0,036.4,029.5,17.6,0000.0,0004.71,0003.14,0002.68
2023-09-18 05:01:00,SystemResetWarning,0831.7,5.00,000.00,028.0,026.0,000.0,036.4,029.5,17.5,0000.0,0004.39,0003.11,0002.65
2023-09-18 05:02:00,SystemResetWarning,0831.6,4.99,000.00,028.0,026.2,000.0,036.4,029.6,17.1,0000.0,0004.29,0003.07,0002.62
2023-09-18 05:03:00,SystemResetWarning,0831.6,4.99,000.00,028.0,026.4,000.0,036.4,029.6,17.3,0000.0,0004.19,0003.02,0002.60
2023-09-18 05:04:00,SystemResetWarning,0831.7,5.00,000.00,028.1,026.6,000.0,036.4,029.7,17.4,0000.0,0004.17,0002.99,0002.56
2023-09-18 05:05:00,SystemResetWarning,0831.7,5.01,000.00,028.1,026.7,000.0,036.4,029.7,17.5,0000.0,0004.20,0002.97,0002.54
2023-09-18 05:06:00,SystemResetWarning,0831.7,5.01,000.00,028.1,026.8,000.0,036.5,029.7,17.4,0000.0,0004.23,0002.97,0002.50
2023-09-18 05:07:00,SystemResetWarning,0831.9,5.00,000.00,028.2,026.9,000.0,036.5,029.8,17.2,0000.0,0004.06,0002.96,0002.48
2023-09-18 05:08:00,SystemResetWarning,0831.7,5.00,000.00,028.2,027.0,000.0,036.5,029.9,17.1,0000.0,0004.03,0002.96,0002.47
2023-09-18 05:09:00,SystemResetWarning,0831.9,4.99,000.00,028.2,027.1,000.0,036.5,029.9,17.0,0000.0,0003.94,0002.92,0002.45
2023-09-18 05:10:00,SystemResetWarning,0831.7,5.00,000.00,028.3,027.1,000.0,036.5,029.9,17.0,0000.0,0003.71,0002.83,0002.45
2023-09-18 05:11:00,SystemResetWarning,0831.7,5.00,000.00,028.3,027.2,000.0,036.5,030.0,17.1,0000.0,0003.58,0002.78,0002.43
2023-09-18 05:12:00,SystemResetWarning,0831.8,5.00,000.00,028.3,027.2,000.0,036.6,030.0,17.0,0000.0,0003.45,0002.72,0002.41
2023-09-18 05:13:00,SystemResetWarning,0831.7,5.00,000.00,028.4,027.3,000.0,036.6,030.1,17.0,0000.0,0003.42,0002.70,0002.40
2023-09-18 05:14:00,SystemResetWarning,0831.7,5.00,000.00,028.3,026.1,000.0,036.5,029.7,16.9,0000.0,0003.40,0002.67,0002.37
2023-09-18 05:15:00,SystemResetWarning,0831.7,5.01,000.00,028.2,024.7,000.0,036.5,029.4,17.2,0000.0,0003.58,0002.69,0002.35
2023-09-18 05:16:00,SystemResetWarning,0831.6,5.01,000.00,028.1,024.6,000.0,036.4,029.3,17.5,0000.0,0003.83,0002.68,0002.34
2023-09-18 05:17:00,SystemResetWarning,0831.7,5.00,000.00,028.0,024.8,000.0,036.4,029.3,17.7,0000.0,0003.74,0002.65,0002.33
2023-09-18 05:18:00,SystemResetWarning,0831.7,4.99,000.00,028.0,025.1,000.0,036.4,029.3,18.1,0000.0,0004.23,0002.64,0002.31
2023-09-18 05:19:00,SystemResetWarning,0831.7,5.00,000.00,028.0,025.4,000.0,036.4,029.4,18.1,0000.0,0004.28,0002.59,0002.30
2023-09-18 05:20:00,SystemResetWarning,0831.7,5.01,000.00,028.0,025.7,000.0,036.4,029.4,18.1,0000.0,0004.31,0002.58,0002.29
2023-09-18 05:21:00,SystemResetWarning,0831.7,5.00,000.00,028.0,025.9,000.0,036.4,029.5,18.1,0000.0,0004.35,0002.60,0002.31
2023-09-18 05:22:00,SystemResetWarning,0831.7,5.01,000.00,028.0,026.2,000.0,036.4,029.6,18.0,0000.0,0004.52,0002.66,0002.33
2023-09-18 05:23:00,SystemResetWarning,0831.7,5.00,000.00,028.0,026.3,000.0,036.4,029.6,18.0,0000.0,0004.61,0002.70,0002.34
2023-09-18 05:24:00,SystemResetWarning,0831.7,5.00,000.00,028.0,026.5,000.0,036.4,029.6,17.9,0000.0,0004.60,0002.70,0002.35
2023-09-18 05:25:00,SystemResetWarning,0831.7,4.99,000.00,028.1,026.6,000.0,036.4,029.7,18.1,0000.0,0004.60,0002.73,0002.38
2023-09-18 05:26:00,SystemResetWarning,0831.7,5.00,000.00,028.1,026.7,000.0,036.4,029.7,17.9,0000.0,0004.45,0002.72,0002.42
2023-09-18 05:27:00,SystemResetWarning,0831.7,5.00,000.00,028.1,026.8,000.0,036.4,029.8,17.9,0000.0,0004.34,0002.74,0002.45
2023-09-18 05:28:00,SystemResetWarning,0831.7,5.00,000.00,028.1,026.9,000.0,036.4,029.8,18.0,0000.0,0004.45,0002.78,0002.46
2023-09-18 05:29:00,SystemResetWarning,0831.7,5.01,000.00,028.2,026.9,000.0,036.4,029.9,18.0,0000.0,0004.03,0002.80,0002.47
2023-09-18 05:30:00,SystemResetWarning,0831.7,4.99,000.00,028.2,027.0,000.0,036.5,029.9,17.9,0000.0,0003.98,0002.85,0002.50
2023-09-18 05:31:00,SystemResetWarning,0831.7,5.00,000.00,028.2,027.1,000.0,036.5,029.9,17.7,0000.0,0003.99,0002.88,0002.52
2023-09-18 05:32:00,SystemResetWarning,0831.6,5.01,000.00,028.3,027.1,000.0,036.5,030.0,17.6,0000.0,0004.06,0002.92,0002.54
2023-09-18 05:33:00,SystemResetWarning,0831.7,5.00,000.00,028.3,027.1,000.0,036.5,030.0,17.5,0000.0,0004.04,0002.93,0002.55
2023-09-18 05:34:00,SystemResetWarning,0831.7,5.01,000.00,028.3,027.2,000.0,036.5,030.0,17.4,0000.0,0004.13,0002.98,0002.58
2023-09-18 05:35:00,SystemResetWarning,0831.7,4.99,000.00,028.3,027.2,000.0,036.6,030.0,17.5,0000.0,0004.30,0003.06,0002.58
2023-09-18 05:36:00,SystemResetWarning,0831.7,4.99,000.00,028.4,027.2,000.0,036.6,030.1,17.5,0000.0,0004.41,0003.07,0002.58
2023-09-18 05:37:00,SystemResetWarning,0831.7,5.00,000.00,028.3,025.9,000.0,036.5,029.7,17.5,0000.0,0004.45,0003.08,0002.57
2023-09-18 05:38:00,SystemResetWarning,0831.6,5.00,000.00,028.2,024.7,000.0,036.5,029.4,17.4,0000.0,0004.31,0003.04,0002.54
2023-09-18 05:39:00,SystemResetWarning,0831.6,5.02,000.00,028.1,024.5,000.0,036.4,029.3,17.6,0000.0,0004.18,0003.01,0002.52
2023-09-18 05:40:00,SystemResetWarning,0831.6,5.00,000.00,028.0,024.8,000.0,036.5,029.3,17.7,0000.0,0004.17,0003.02,0002.52
2023-09-18 05:41:00,SystemResetWarning,0831.6,4.99,000.00,028.0,025.1,000.0,036.5,029.3,17.9,0000.0,0004.09,0003.00,0002.52
2023-09-18 05:42:00,SystemResetWarning,0831.6,5.00,000.00,028.0,025.4,000.0,036.5,029.4,18.0,0000.0,0004.02,0002.98,0002.53
2023-09-18 05:43:00,SystemResetWarning,0831.6,5.00,000.00,028.0,025.7,000.0,036.4,029.5,17.8,0000.0,0003.97,0002.94,0002.50
2023-09-18 05:44:00,SystemResetWarning,0831.6,5.00,000.00,028.0,025.9,000.0,036.4,029.5,18.0,0000.0,0003.89,0002.89,0002.47
2023-09-18 05:45:00,SystemResetWarning,0831.6,5.00,000.00,028.0,026.2,000.0,036.4,029.5,18.0,0000.0,0003.78,0002.84,0002.45
2023-09-18 05:46:00,SystemResetWarning,0831.6,4.99,000.00,028.0,026.3,000.0,036.4,029.6,18.0,0000.0,0003.56,0002.74,0002.43
2023-09-18 05:47:00,SystemResetWarning,0831.6,5.00,000.00,028.0,026.5,000.0,036.4,029.7,18.0,0000.0,0003.45,0002.71,0002.41
2023-09-18 05:48:00,SystemResetWarning,0831.6,5.01,000.00,028.1,026.6,000.0,036.4,029.7,17.9,0000.0,0003.37,0002.67,0002.39
2023-09-18 05:49:00,SystemResetWarning,0831.6,5.00,000.00,028.1,026.7,000.0,036.4,029.7,18.0,0000.0,0003.26,0002.63,0002.38
2023-09-18 05:50:00,SystemResetWarning,0831.6,5.01,000.00,028.1,026.8,000.0,036.5,029.8,18.0,0000.0,0003.61,0002.64,0002.37
2023-09-18 05:51:00,SystemResetWarning,0831.6,4.99,000.00,028.2,026.9,000.0,036.5,029.8,17.9,0000.0,0004.06,0002.62,0002.35
2023-09-18 05:52:00,SystemResetWarning,0831.6,5.00,000.00,028.2,027.0,000.0,036.5,029.8,17.9,0000.0,0004.08,0002.60,0002.33
2023-09-18 05:53:00,SystemResetWarning,0831.6,5.00,000.00,028.2,027.1,000.0,036.5,029.9,17.8,0000.0,0004.07,0002.57,0002.30
2023-09-18 05:54:00,SystemResetWarning,0831.6,5.00,000.00,028.2,027.1,000.0,036.5,029.9,17.6,0000.0,0004.06,0002.55,0002.28
2023-09-18 05:55:00,SystemResetWarning,0831.6,5.01,000.00,028.3,027.2,000.0,036.5,030.0,17.5,0000.0,0004.11,0002.54,0002.25
2023-09-18 05:56:00,SystemResetWarning,0831.6,5.01,000.00,028.3,027.2,000.0,036.6,030.0,17.6,0000.0,0004.03,0002.49,0002.20
2023-09-18 05:57:00,SystemResetWarning,0831.6,4.99,000.00,028.3,027.3,000.0,036.6,030.0,17.7,0000.0,0003.95,0002.44,0002.16
2023-09-18 05:58:00,SystemResetWarning,0831.7,4.99,000.00,028.4,027.3,000.0,036.6,030.1,17.8,0000.0,0003.95,0002.42,0002.14
2023-09-18 05:59:00,SystemResetWarning,0831.6,5.00,000.00,028.4,026.7,000.0,036.6,029.9,17.8,0000.0,0004.01,0002.42,0002.12
